Regional Weather Roundup
Issued by NWS

Home | Current Version | Previous Version | Text Only | Print | Product List | Glossary On
Versions: 1 2 3 4 5 6 7 8 9 10 11 12 13 14 15 16 17 18 19 20 21 22 23 24 25 26 27 28 29 30 31 32 33 34 35 36 37 38 39 40 41 42 43 44 45 46 47 48 49 50
000
ASUS44 KFWD 010215
RWRTX
NORTH TEXAS HOURLY WEATHER ROUNDUP
NATIONAL WEATHER SERVICE FORT WORTH TX
900 PM CDT FRI JUL 31 2015

NOTE: "FAIR" INDICATES FEW OR NO CLOUDS BELOW 12,000 FEET WITH NO
SIGNIFICANT WEATHER AND/OR OBSTRUCTIONS TO VISIBILITY.

TXZ118-119-010300-
DALLAS/FORT WORTH METROPLEX

CITY           SKY/WX    TMP DP  RH WIND       PRES   REMARKS
DFW AIRPORT    CLOUDY    90  64  42 NE8       30.03R HX  91
DALLAS LOVE    CLOUDY    91  64  40 E5        30.02R HX  92
FTW MEACHAM    CLOUDY    83  71  67 NW9       30.04R
DAL-EXECUTIVE  MOCLDY    90  63  40 E6        30.03R HX  91
FTW-ALLIANCE   CLOUDY    82  69  64 NW7       30.04S
FTW-NAS-JRB    CLOUDY    84  74  71 NE12      30.04R HX  91
FTW-SPINKS     CLOUDY    86  67  51 CALM      30.05R
ARLINGTON      CLOUDY    92  64  39 E7        30.03R HX  93
GRAND PRAIRIE  CLOUDY    90  67  46 E5        30.04R HX  93
ADDISON        MOCLDY    90  61  37 E6        30.04R
MESQUITE       MOCLDY    86  59  39 E3        30.03R
LANCASTER      MOCLDY    87  61  42 NE3       30.03R
$$

TXZ091>094-102>105-117-120-121-131>134-010300-
NORTH CENTRAL TEXAS

CITY           SKY/WX    TMP DP  RH WIND       PRES   REMARKS
SHRMAN/DENISON CLOUDY    83  70  63 NE3       30.06R
GAINESVILLE    CLOUDY    83  69  62 N6        30.08R
BOWIE          CLOUDY    76  68  78 N3        30.07S
DECATUR        CLOUDY    76  68  76 N3        30.07S
DENTON         CLOUDY    81  70  69 NW7       30.04R
MCKINNEY       CLOUDY    87  63  44 NE5       30.03S
GREENVILLE     MOCLDY    84  55  37 CALM      30.03S
ROCKWALL       MOCLDY    86  59  39 E5        30.02S
TERRELL        MOCLDY    86  62  44 NE3       30.03R
WAXAHACHIE     MOCLDY    85  67  54 NE3       30.04R
CLEBURNE         N/A     86  73  66 W8        30.07R HX  93
GRANBURY       LGT RAIN  77  73  86 SW10      30.06F
$$

TXZ083>090-098>101-113>116-127>130-139>142-154-155-010300-
WESTERN NORTH TEXAS

CITY           SKY/WX    TMP DP  RH WIND       PRES   REMARKS
WICHITA FALLS  CLOUDY    75  72  90 E10       30.04F
WF-KICKAPOO    CLOUDY    76  72  86 E5        30.05F
VERNON         MOCLDY    78  66  68 SE8       30.08F
ABILENE        PTCLDY    81  69  67 E17G31    30.08R
ABILENE-DYESS  PTCLDY    81  70  70 E20G35    30.07R
BRECKENRIDGE   CLOUDY    78  67  67 E10       30.05F
GRAHAM         LGT RAIN  73  72  96 E5        30.04F
MINERAL WELLS  CLOUDY    75  71  87 CALM      30.05F
STEPHENVILLE   CLOUDY    73  67  82 E8        30.12S
COMANCHE       MOCLDY    77  68  73 NE5       30.09R
BROWNWOOD      PTCLDY    82  68  61 NE10G20   30.06R
COLEMAN        PTCLDY    85  69  59 E14G28    30.06R
BRADY          CLEAR     91  64  40 E8        30.04R HX  93
$$

TXZ143>147-156>162-174-175-010300-
CENTRAL TEXAS

CITY           SKY/WX    TMP DP  RH WIND       PRES   REMARKS
WACO           PTCLDY    89  66  46 NE8       30.01R HX  91
WACO-TSTC      CLEAR     88  66  48 CALM      30.01R HX  90
WACO-MCGREGOR  CLEAR     91  64  40 NE7       30.02R HX  93
HILLSBORO      MOCLDY    86  64  46 N5        30.04R
CORSICANA      CLEAR     88  60  38 NE6       30.02R
MEXIA          CLEAR     85  65  51 NE9       30.00R
HEARNE         CLEAR     87  66  50 NE3       29.98R
CAMERON        PTCLDY    90  70  52 E3        29.98R HX  95
TEMPLE         CLEAR     90  66  45 NE8       30.00R HX  92
KILLEEN        PTCLDY    91  69  48 E10       30.01R HX  96
KILLEEN-SKYLRK PTCLDY    90  70  51 NE9       30.00R HX  95
FORT HOOD      PTCLDY    90  70  50 E8        30.00R HX  95
GATESVILLE     PTCLDY    90  68  48 NE9       30.05R HX  93
HAMILTON       MOCLDY    82  67  59 NE14G22   30.07R
LAMPASAS       PTCLDY    91  70  50 E9        30.02R HX  96
$$

TXZ095>097-106>112-122>126-135>138-148>153-164>167-010300-
EAST TEXAS

CITY           SKY/WX    TMP DP  RH WIND       PRES   REMARKS
PARIS          MOCLDY    84  57  39 E5        30.04S
SULPHUR SPRNGS CLOUDY    86  60  40 NE3       30.05S
MOUNT PLEASANT PTCLDY    84  59  43 CALM      30.03S
GILMER         PTCLDY    82  61  49 CALM      30.02S
MINEOLA        MOCLDY    84  61  45 CALM      30.03R
TYLER          CLEAR     86  60  41 NE3       30.02R
LONGVIEW       CLEAR     82  62  50 E3        30.00R
MARSHALL       CLEAR     81  66  60 CALM      30.03R
ATHENS         CLEAR     82  61  47 CALM      30.00R
PALESTINE      CLEAR     86  58  38 NE3       30.01R
JACKSONVILLE   CLEAR     85  54  34 NE5       30.04R
HENDERSON      CLEAR     82  60  46 CALM      30.02R
CENTER         FAIR      81  66  61 CALM      29.99R
NACOGDOCHES    CLEAR     82  61  47 N3        30.00R
LUFKIN         CLEAR     82  61  48 N3        29.99R
$$

SUPPLEMENTAL OBSERVATIONS (CENTRAL)

CITY           SKY/WX    TMP DP  RH WIND       PRES   REMARKS
LAKE TEXOMA      N/A     84  66  54 NE1         N/A
CADDO GRASSLND   N/A     79  63  57 E1          N/A
PAT MAYSE LAKE   N/A     86  55  35 E5          N/A
GREENVILLE       N/A     86  59  39 E5          N/A
CEDAR HILL       N/A     86  64  48 CALM        N/A
ATHENS           N/A     82  59  44 CALM        N/A
LAKE LIMESTONE   N/A     84  59  42 NE3         N/A
MCGREGOR         N/A     90  66  45 NE7         N/A  HX  92
TEMPLE           N/A     90  66  45 NE8         N/A  HX  92
$$

SUPPLEMENTAL OBSERVATIONS (WEST)

CITY           SKY/WX    TMP DP  RH WIND       PRES   REMARKS
POSSUM KINGDOM   N/A     75  64  69 SE7         N/A
LBJ GRASSLAND    N/A     79  70  73 N3          N/A
GRANBURY         N/A     75  72  88 SW12G22     N/A
COMANCHE         N/A     77  64  65 NE14        N/A
HAMBY            N/A     79  66  65 E17G31      N/A
IVIE RESERVOIR   N/A     93  63  36 E10         N/A  HX  94
COLORADO BEND    N/A     90  66  45 SE9G17      N/A  HX  92
$$

SUPPLEMENTAL OBSERVATIONS (EAST)

CITY           SKY/WX    TMP DP  RH WIND       PRES   REMARKS
CLARKSVILLE      N/A     81  57  44 NE1         N/A
TEXARKANA        N/A     73  68  83 CALM        N/A
LINDEN           N/A     81  63  54 CALM        N/A
GILMER           N/A     82  61  47 CALM        N/A
HENDERSON        N/A     82  57  42 E3          N/A
N SABINE NF      N/A     77  64  65 MISG        N/A
S SABINE NF      N/A     79  63  57 CALM        N/A
$$

SUPPLEMENTAL OBSERVATIONS ARE A COLLECTION OF AUTOMATED INSTRUMENTS
THAT ARE MAINTAINED BY A VARIETY OF FEDERAL AND STATE AGENCIES.
CERTAIN ELEMENTS...SUCH AS HUMIDITY VALUES AND SUSTAINED WIND
SPEEDS...MAY BE APPROXIMATED.




USA.gov is the U.S. government's official web portal to all federal, state and local government web resources and services.